TimeCDT,TemperatureF,Dew PointF,Humidity,Sea Level PressureIn,VisibilityMPH,Wind Direction,Wind SpeedMPH,Gust SpeedMPH,PrecipitationIn,Events,Conditions,WindDirDegrees,DateUTC
12:55 PM,57.2,26.6,31,30.20,10.0,WNW,6.9,17.3,N/A,,Scattered Clouds,290,2013-05-12 17:55:00
1:15 PM,57.2,26.6,31,30.19,10.0,West,4.6,-,N/A,,Clear,270,2013-05-12 18:15:00
1:35 PM,57.2,30.2,36,30.19,10.0,NNW,11.5,17.3,N/A,,Clear,330,2013-05-12 18:35:00
1:55 PM,57.2,26.6,31,30.19,10.0,NNW,8.1,-,N/A,,Scattered Clouds,330,2013-05-12 18:55:00
2:15 PM,57.2,28.4,33,30.18,10.0,WNW,9.2,16.1,N/A,,Scattered Clouds,290,2013-05-12 19:15:00
2:35 PM,57.2,30.2,36,30.18,10.0,West,3.5,-,N/A,,Scattered Clouds,270,2013-05-12 19:35:00
2:55 PM,57.2,28.4,33,30.18,10.0,WNW,5.8,-,N/A,,Scattered Clouds,290,2013-05-12 19:55:00
3:15 PM,59.0,28.4,31,30.17,10.0,North,12.7,16.1,N/A,,Clear,350,2013-05-12 20:15:00
3:35 PM,59.0,28.4,31,30.16,10.0,WNW,9.2,-,N/A,,Clear,300,2013-05-12 20:35:00
3:55 PM,59.0,28.4,31,30.16,10.0,North,4.6,-,N/A,,Scattered Clouds,350,2013-05-12 20:55:00
4:15 PM,59.0,26.6,29,30.16,10.0,NNW,9.2,16.1,N/A,,Scattered Clouds,330,2013-05-12 21:15:00
4:35 PM,59.0,26.6,29,30.15,10.0,WNW,9.2,-,N/A,,Scattered Clouds,300,2013-05-12 21:35:00
4:55 PM,59.0,28.4,31,30.15,10.0,WNW,5.8,16.1,N/A,,Scattered Clouds,290,2013-05-12 21:55:00
5:15 PM,59.0,28.4,31,30.15,10.0,NNW,3.5,-,N/A,,Clear,330,2013-05-12 22:15:00
5:35 PM,59.0,28.4,31,30.15,10.0,NNW,6.9,-,N/A,,Clear,330,2013-05-12 22:35:00
5:55 PM,59.0,28.4,31,30.15,10.0,West,4.6,-,N/A,,Scattered Clouds,280,2013-05-12 22:55:00
6:15 PM,59.0,28.4,31,30.15,10.0,NNW,6.9,-,N/A,,Scattered Clouds,330,2013-05-12 23:15:00
6:35 PM,57.2,28.4,33,30.15,10.0,West,5.8,-,N/A,,Clear,270,2013-05-12 23:35:00
6:55 PM,57.2,28.4,33,30.15,10.0,Calm,Calm,-,N/A,,Clear,0,2013-05-12 23:55:00
7:15 PM,57.2,28.4,33,30.15,10.0,Calm,Calm,-,N/A,,Scattered Clouds,0,2013-05-13 00:15:00
7:35 PM,55.4,30.2,38,30.15,10.0,Calm,Calm,-,N/A,,Clear,0,2013-05-13 00:35:00
7:55 PM,53.6,33.8,47,30.15,10.0,Calm,Calm,-,N/A,,Clear,0,2013-05-13 00:55:00
8:15 PM,51.8,39.2,62,30.16,10.0,Calm,Calm,-,N/A,,Clear,0,2013-05-13 01:15:00
9:15 PM,46.4,39.2,76,30.17,10.0,Calm,Calm,-,N/A,,Clear,0,2013-05-13 02:15:00
9:35 PM,46.4,41.0,81,30.18,10.0,Calm,Calm,-,N/A,,Clear,0,2013-05-13 02:35:00
10:15 PM,44.6,39.2,81,30.18,10.0,Calm,Calm,-,N/A,,Clear,0,2013-05-13 03:15:00
11:35 PM,42.8,39.2,87,30.18,10.0,Calm,Calm,-,N/A,,Clear,0,2013-05-13 04:35:00
11:55 PM,42.8,39.2,87,30.18,10.0,Calm,Calm,-,N/A,,Clear,0,2013-05-13 04:55:00